Cloud_Cover
5 5 5 6 97 11 12 5 15 5 56 100 100 100 29 5 4 0 17 27 6 30 50 11 100 86 17 10 13 14 14 100 100
5 5 5 5 5 6 5 43 5 36 42 9 5 15 5 2 2 28 16 6 80 41 32 5 24 99 94 99 100 100 26 100 16
0 0 6 5 5 5 5 4 0 2 10 0 2 5 5 8 71 91 28 6 25 57 6 0 0 25 22 27 22 35 11 9 0
0 0 1 1 1 2 5 0 0 0 2 0 0 1 53 45 98 13 5 17 95 15 0 0 0 0 0 0 0 0 0 0 0
0 0 0 0 0 0 0 0 0 0 0 0 0 0 81 100 44 30 11 5 5 0 0 0 0 0 0 0 0 0 0 0 0
0 0 0 0 0 0 0 0 0 0 0 0 0 2 100 100 60 6 49 28 17 0 0 0 0 0 0 0 0 0 0 0 0
0 0 0 0 0 0 0 0 0 0 0 0 0 0 37 58 58 79 100 7 0 0 5 4 3 0 0 0 0 0 0 0 0
17 18 5 2 0 0 0 0 0 0 0 0 0 1 57 77 24 44 14 0 4 5 5 5 5 4 5 2 0 0 0 0 0
23 28 14 11 6 2 0 1 0 0 0 0 0 5 11 38 39 66 5 5 5 5 5 7 35 9 0 5 0 4 0 0 0
20 15 15 12 4 6 0 0 0 0 0 2 4 4 4 5 5 5 5 5 5 20 56 100 100 5 34 41 18 1 0 3 5
24 5 6 4 2 3 0 0 0 1 5 5 5 6 5 5 5 5 5 5 5 7 100 100 8 5 5 8 11 92 60 58 5
99 20 5 5 5 5 4 1 4 5 32 28 44 6 5 5 5 5 5 5 18 100 100 61 71 28 21 36 96 34 74 96 16
100 99 100 23 7 5 5 5 11 47 15 30 14 22 100 100 100 20 52 100 100 100 100 45 98 44 7 66 32 59 17 39 66
100 100 100 100 94 48 28 40 46 86 90 100 100 100 100 97 88 12 90 100 93 98 90 100 100 100 100 100 100 100 100 98 6
100 100 100 100 100 100 100 99 100 100 100 100 100 100 100 100 100 100 100 86 96 49 83 58 83 46 100 100 100 100 100 24 5
100 100 100 100 100 100 100 100 100 100 100 100 84 100 99 98 81 98 93 67 12 99 100 100 100 100 100 100 100 100 5 5 27
100 100 100 100 100 100 100 100 100 100 100 100 100 100 100 46 37 84 6 6 16 98 100 100 98 100 100 100 100 88 7 6 5
100 100 100 100 100 100 100 100 100 100 100 94 97 100 100 100 100 96 90 10 12 92 100 100 100 100 100 100 98 76 78 100 5
100 100 100 97 96 90 93 99 99 99 100 100 100 100 100 100 100 100 40 53 96 100 100 100 100 100 100 100 100 100 100 78 40
100 100 100 100 100 100 100 100 100 100 99 100 100 99 98 93 100 100 100 100 100 100 100 100 100 100 100 100 100 100 5 40 100